Regional Weather Roundup
Issued by NWS Goodland, KS

Home | Current Version | Previous Version | Graphics & Text | Print | Product List | Glossary On
Versions: 1 2 3 4 5 6 7 8 9 10 11 12 13 14 15 16 17 18 19 20 21 22 23 24 25 26 27 28 29 30 31 32 33 34 35 36 37 38 39 40 41 42 43 44 45 46 47 48 49 50
000
ASUS43 KGLD 030859
RWRGLD

GOODLAND FORECAST AREA HOURLY WEATHER ROUNDUP
NATIONAL WEATHER SERVICE GOODLAND KS
300 AM MDT THU SEP 03 2015

...OFFICIAL OBSERVATIONS...

CITY           SKY/WX    TMP DP  RH WIND       PRES   REMARKS
GOODLAND KS    CLEAR     63  55  75 S5        29.88S
HILL CITY KS   PTCLDY    76  58  53 S5        29.84S
IMPERIAL NEB   PTCLDY    65  56  72 W5        29.85F
MCCOOK NEB     PTCLDY    71  56  58 S5        29.81F
AKRON CO       CLEAR     63  40  42 W10       29.96S
BURLINGTON CO  CLEAR     59  52  77 W9        29.92F
LIMON CO       CLEAR     52  47  83 N7        30.02F
$$

...UNOFFICIAL OBSERVATIONS...

CITY           SKY/WX    TMP DP  RH WIND       PRES   REMARKS
COLBY KS       CLEAR     72  59  64 S6        29.86F
GOVE KS          N/A     77  32  19 MISG        N/A
LENORA KS        N/A     74  32  21 MISG        N/A
NORTON KS      CLEAR     73  55  53 SE5       29.82S
YUMA CO          N/A     57  49  74 CALM        N/A
$$



USA.gov is the U.S. government's official web portal to all federal, state and local government web resources and services.